When you browse on this site, cookies collect data to enhance your experience and personalize the content and advertising you see.
Visit our Privacy Policy to learn more. By continuing to use the site, you agree to this use of cookies and data.
  • In Portugal
  • List of Countries
  • For 7 days
  • Water Temperature
  • Satellite Maps
  • Weather Map
  • Weather Widgets
  • user-avatar
    Login

    Hourly Weather Poplin

    Today, 25 May, Saturday

    Time Temperature Precipitation Wind Pressure Humidity
    00:00 +9°C° 0 mm 2 mps 734 mmHg 80%
    01:00 +9°C° 0 mm 2 mps 734 mmHg 79%
    02:00 +9°C° 0 mm 1 mps 734 mmHg 78%
    03:00 +9°C° 0 mm 1 mps 734 mmHg 77%
    04:00 +8°C° 0 mm 2 mps 733 mmHg 77%
    05:00 +9°C° 0 mm 2 mps 733 mmHg 77%
    06:00 +10°C° 0 mm 2 mps 733 mmHg 76%
    07:00 +12°C° 0 mm 3 mps 734 mmHg 75%
    08:00 +14°C° 0 mm 4 mps 734 mmHg 73%
    09:00 +15°C° 0 mm 4 mps 734 mmHg 71%
    10:00 +16°C° 0 mm 5 mps 734 mmHg 68%
    11:00 +17°C° 0 mm 5 mps 734 mmHg 65%
    12:00 +17°C° 0.3 mm 6 mps 734 mmHg 67%
    13:00 +17°C° 0.3 mm 6 mps 733 mmHg 69%
    14:00 +17°C° 0.3 mm 6 mps 733 mmHg 71%
    15:00 +16°C° 0 mm 6 mps 733 mmHg 71%
    16:00 +15°C° 0 mm 6 mps 733 mmHg 71%
    17:00 +14°C° 0 mm 6 mps 733 mmHg 71%
    18:00 +13°C° 0 mm 5 mps 733 mmHg 75%
    19:00 +12°C° 0 mm 4 mps 733 mmHg 79%
    20:00 +10°C° 0 mm 3 mps 733 mmHg 84%
    21:00 +9°C° 0 mm 3 mps 734 mmHg 87%
    22:00 +8°C° 0 mm 3 mps 734 mmHg 91%
    23:00 +7°C° 0 mm 3 mps 734 mmHg 95%

    Tomorrow, 26 May, Sunday

    Time Temperature Precipitation Wind Pressure Humidity
    00:00 +5°C° 0 mm 3 mps 734 mmHg 96%
    01:00 +5°C° 0 mm 3 mps 734 mmHg 96%
    02:00 +5°C° 0 mm 2 mps 734 mmHg 97%
    03:00 +4°C° 0 mm 3 mps 734 mmHg 97%
    04:00 +5°C° 0 mm 3 mps 734 mmHg 96%
    05:00 +5°C° 0 mm 3 mps 734 mmHg 96%
    06:00 +7°C° 0 mm 3 mps 734 mmHg 91%
    07:00 +8°C° 0 mm 4 mps 734 mmHg 86%
    08:00 +10°C° 0 mm 5 mps 734 mmHg 82%
    09:00 +12°C° 0 mm 5 mps 734 mmHg 78%
    10:00 +13°C° 0 mm 5 mps 734 mmHg 74%
    11:00 +14°C° 0 mm 6 mps 734 mmHg 70%
    12:00 +14°C° 0.1 mm 6 mps 733 mmHg 70%
    13:00 +14°C° 0.1 mm 6 mps 733 mmHg 70%
    14:00 +14°C° 0.1 mm 6 mps 733 mmHg 71%
    15:00 +14°C° 0.4 mm 6 mps 733 mmHg 75%
    16:00 +14°C° 0.4 mm 5 mps 733 mmHg 78%
    17:00 +13°C° 0.4 mm 5 mps 733 mmHg 82%
    18:00 +13°C° 0.1 mm 4 mps 732 mmHg 85%
    19:00 +12°C° 0.1 mm 4 mps 732 mmHg 87%
    20:00 +12°C° 0.1 mm 3 mps 732 mmHg 89%
    21:00 +11°C° 0 mm 3 mps 732 mmHg 90%
    22:00 +11°C° 0 mm 3 mps 732 mmHg 90%
    23:00 +11°C° 0 mm 3 mps 732 mmHg 91%

    Day after tomorrow, 27 May, Monday

    Time Temperature Precipitation Wind Pressure Humidity
    00:00 +11°C° 0.2 mm 3 mps 732 mmHg 92%
    01:00 +11°C° 0.2 mm 4 mps 732 mmHg 92%
    02:00 +11°C° 0.2 mm 4 mps 732 mmHg 93%
    03:00 +11°C° 0 mm 4 mps 732 mmHg 93%
    04:00 +11°C° 0 mm 3 mps 732 mmHg 94%
    05:00 +11°C° 0 mm 3 mps 732 mmHg 95%
    06:00 +11°C° 0 mm 4 mps 732 mmHg 93%
    07:00 +12°C° 0 mm 4 mps 732 mmHg 92%
    08:00 +13°C° 0 mm 5 mps 732 mmHg 90%
    09:00 +14°C° 0.1 mm 6 mps 732 mmHg 87%
    10:00 +15°C° 0.1 mm 6 mps 732 mmHg 83%
    11:00 +16°C° 0.1 mm 7 mps 732 mmHg 80%
    12:00 +17°C° 0.2 mm 7 mps 732 mmHg 77%
    13:00 +18°C° 0.2 mm 7 mps 732 mmHg 75%
    14:00 +18°C° 0.2 mm 7 mps 732 mmHg 72%
    15:00 +19°C° 0.5 mm 6 mps 732 mmHg 75%
    16:00 +19°C° 0.5 mm 5 mps 732 mmHg 77%
    17:00 +19°C° 0.5 mm 4 mps 732 mmHg 80%
    18:00 +18°C° 0.6 mm 3 mps 731 mmHg 84%
    19:00 +17°C° 0.6 mm 2 mps 731 mmHg 88%
    20:00 +16°C° 0.6 mm 2 mps 731 mmHg 92%
    21:00 +16°C° 0.3 mm 2 mps 732 mmHg 93%
    22:00 +15°C° 0.3 mm 2 mps 732 mmHg 94%
    23:00 +13°C° 0.3 mm 3 mps 732 mmHg 95%

    28 May, Tuesday

    Time Temperature Precipitation Wind Pressure Humidity
    00:00 +13°C° 0.1 mm 3 mps 732 mmHg 96%
    01:00 +13°C° 0.1 mm 3 mps 732 mmHg 96%
    02:00 +12°C° 0.1 mm 3 mps 732 mmHg 97%
    03:00 +12°C° 0 mm 2 mps 732 mmHg 96%
    04:00 +12°C° 0 mm 2 mps 733 mmHg 95%
    05:00 +11°C° 0 mm 1 mps 733 mmHg 94%
    06:00 +12°C° 0 mm 1 mps 733 mmHg 90%
    07:00 +13°C° 0 mm 1 mps 733 mmHg 86%
    08:00 +13°C° 0 mm 1 mps 733 mmHg 82%
    09:00 +14°C° 0.1 mm 1 mps 733 mmHg 80%
    10:00 +15°C° 0.1 mm 1 mps 733 mmHg 78%
    11:00 +15°C° 0.1 mm 1 mps 733 mmHg 76%
    12:00 +15°C° 0.5 mm 2 mps 733 mmHg 80%
    13:00 +15°C° 0.5 mm 2 mps 733 mmHg 83%
    14:00 +15°C° 0.5 mm 2 mps 733 mmHg 87%
    15:00 +14°C° 0.1 mm 2 mps 733 mmHg 89%
    16:00 +14°C° 0.1 mm 2 mps 733 mmHg 90%
    17:00 +14°C° 0.1 mm 2 mps 733 mmHg 91%
    18:00 +14°C° 0 mm 2 mps 733 mmHg 91%
    19:00 +13°C° 0 mm 2 mps 733 mmHg 91%
    20:00 +13°C° 0 mm 2 mps 733 mmHg 91%
    21:00 +12°C° 0.7 mm 3 mps 733 mmHg 92%
    22:00 +12°C° 0.7 mm 3 mps 732 mmHg 94%
    23:00 +11°C° 0.7 mm 3 mps 732 mmHg 95%

    29 May, Wednesday

    Time Temperature Precipitation Wind Pressure Humidity
    00:00 +11°C° 0.7 mm 4 mps 732 mmHg 95%
    01:00 +11°C° 0.7 mm 4 mps 732 mmHg 96%
    02:00 +11°C° 0.7 mm 4 mps 732 mmHg 96%
    03:00 +11°C° 1.4 mm 4 mps 732 mmHg 96%
    04:00 +9°C° 1.4 mm 5 mps 732 mmHg 96%
    05:00 +9°C° 1.4 mm 5 mps 732 mmHg 96%
    06:00 +9°C° 0.3 mm 5 mps 733 mmHg 95%
    07:00 +8°C° 0.3 mm 5 mps 733 mmHg 94%
    08:00 +8°C° 0.3 mm 5 mps 733 mmHg 94%
    09:00 +8°C° 0.1 mm 5 mps 734 mmHg 93%
    10:00 +8°C° 0.1 mm 5 mps 735 mmHg 92%
    11:00 +8°C° 0.1 mm 5 mps 735 mmHg 91%
    12:00 +10°C° 0 mm 5 mps 736 mmHg 85%
    13:00 +12°C° 0 mm 5 mps 736 mmHg 79%
    14:00 +13°C° 0 mm 5 mps 737 mmHg 74%
    15:00 +13°C° 0 mm 5 mps 737 mmHg 71%
    16:00 +13°C° 0 mm 6 mps 738 mmHg 69%
    17:00 +11°C° 0 mm 6 mps 738 mmHg 66%
    18:00 +10°C° 0 mm 6 mps 739 mmHg 69%
    19:00 +8°C° 0 mm 5 mps 739 mmHg 72%
    20:00 +7°C° 0 mm 4 mps 740 mmHg 75%
    21:00 +6°C° 0 mm 4 mps 740 mmHg 77%
    22:00 +5°C° 0 mm 4 mps 741 mmHg 79%
    23:00 +3°C° 0 mm 3 mps 741 mmHg 81%

    30 May, Thursday

    Time Temperature Precipitation Wind Pressure Humidity
    00:00 +3°C° 0 mm 3 mps 742 mmHg 84%
    01:00 +2°C° 0 mm 3 mps 742 mmHg 88%
    02:00 +2°C° 0 mm 3 mps 742 mmHg 91%
    03:00 +2°C° 0 mm 3 mps 743 mmHg 92%
    04:00 +2°C° 0 mm 3 mps 743 mmHg 93%
    05:00 +2°C° 0 mm 3 mps 743 mmHg 94%
    06:00 +5°C° 0 mm 3 mps 743 mmHg 88%
    07:00 +8°C° 0 mm 2 mps 744 mmHg 82%
    08:00 +10°C° 0 mm 2 mps 744 mmHg 76%
    09:00 +13°C° 0 mm 2 mps 744 mmHg 69%
    10:00 +14°C° 0 mm 2 mps 744 mmHg 61%
    11:00 +15°C° 0 mm 2 mps 744 mmHg 53%
    12:00 +16°C° 0 mm 2 mps 744 mmHg 52%
    13:00 +16°C° 0 mm 2 mps 743 mmHg 50%
    14:00 +17°C° 0 mm 2 mps 743 mmHg 48%
    15:00 +17°C° 0 mm 2 mps 743 mmHg 49%
    16:00 +17°C° 0 mm 2 mps 742 mmHg 50%
    17:00 +17°C° 0 mm 2 mps 742 mmHg 51%
    18:00 +16°C° 0 mm 2 mps 742 mmHg 58%
    19:00 +15°C° 0 mm 2 mps 741 mmHg 65%
    20:00 +13°C° 0 mm 2 mps 741 mmHg 71%
    21:00 +12°C° 0 mm 2 mps 741 mmHg 72%
    22:00 +10°C° 0 mm 3 mps 741 mmHg 73%
    23:00 +9°C° 0 mm 3 mps 741 mmHg 74%
    Show more